Regional Weather Roundup
Issued by NWS

Home | Current Version | Previous Version | Graphics & Text | Print | Product List | Glossary On
Versions: 1 2 3 4 5 6 7 8 9 10 11 12 13 14 15 16 17 18 19 20 21 22 23 24 25 26 27 28 29 30 31 32 33 34 35 36 37 38 39 40 41 42 43 44 45 46 47 48 49 50
000
ASUS43 KOAX 281702
RWRNE

WEATHER ROUNDUP FOR NEBRASKA
NATIONAL WEATHER SERVICE OMAHA NE
1200 PM CDT FRI AUG 28 2015

NOTES: SATELLITE DATA IS BEING USED TO AUGMENT CLOUD COVER ABOVE
       12000 FEET.
       "FAIR" INDICATES FEW OR NO CLOUDS BELOW 12,000 FEET WITH NO
       SIGNIFICANT WEATHER AND/OR OBSTRUCTIONS TO VISIBILITY.

  * THESE STATIONS DO NOT REPORT WEATHER SUCH AS RAIN...SNOW OR FOG.

NEZ001>004-019>022-054>056-281800-
NEBRASKA PANHANDLE

CITY           SKY/WX    TMP DP  RH WIND       PRES   REMARKS
SCOTTSBLUFF    MOSUNNY   77  53  43 W14       30.14R
ALLIANCE       SUNNY     81  52  36 N13       30.10R
CHADRON        SUNNY     81  51  35 NW7       30.08S
SIDNEY         SUNNY     82  50  32 N16       30.15R
$$

NEZ057>060-069>072-079>082-281800-
SOUTHWEST NEBRASKA

CITY           SKY/WX    TMP DP  RH WIND       PRES   REMARKS
NORTH PLATTE   MOSUNNY   75  63  66 N12G21    30.03R
IMPERIAL       SUNNY     85  52  32 NW15      30.05R
LEXINGTON      PTSUNNY   76  65  69 N15G21    29.99R
MC COOK        SUNNY     83  61  47 N17       30.01R
OGALLALA       SUNNY     82  53  37 N9        30.06R
$$

NEZ005>010-023>029-035>040-094-281800-
NORTH CENTRAL NEBRASKA

CITY           SKY/WX    TMP DP  RH WIND       PRES   REMARKS
VALENTINE      PTSUNNY   74  64  71 N9        30.03
AINSWORTH      CLOUDY    71  65  82 N10       30.02R
BROKEN BOW     CLOUDY    71  64  78 N13       29.99R
O`NEILL        CLOUDY    67  65  92 N14       29.98R
ORD            CLOUDY    70  63  78 N14       29.95R
THEDFORD       CLOUDY    73  64  75 N12G17    30.03S
$$

NEZ041-046>049-061>064-073>077-083>087-281800-
SOUTH CENTRAL NEBRASKA

CITY           SKY/WX    TMP DP  RH WIND       PRES   REMARKS
GRAND ISLAND   PTSUNNY   77  63  61 N14       29.93R
AURORA         CLOUDY    74  67  78 NW9       29.91S
HASTINGS       MOSUNNY   74  67  78 NW9       29.93S
HEBRON         CLOUDY    74  65  73 NW10G16   29.91R
HOLDREGE       CLOUDY    73  64  73 N3        29.97R
KEARNEY *      CLOUDY    75  63  64 N9        29.95R
YORK           PTSUNNY   73  68  83 NW7       29.90S
$$

NEZ011>018-030>034-042>045-281800-
NORTHEAST NEBRASKA

CITY           SKY/WX    TMP DP  RH WIND       PRES   REMARKS
NORFOLK        CLOUDY    70  64  81 N14       29.89R
ALBION         CLOUDY    69  62  80 N12G21    29.92R
BLAIR          DRIZZLE   70  68  91 S3        29.85R
COLUMBUS *     CLOUDY    72  63  73 NW10      29.89R
FREMONT        CLOUDY    75  69  81 W7        29.85S
TEKAMAH        CLOUDY    73  70  90 SW5       29.83S
$$

NEZ050>053-065>068-078-088>093-281800-
SOUTHEAST NEBRASKA

CITY           SKY/WX    TMP DP  RH WIND       PRES   REMARKS
LINCOLN        CLOUDY    76  68  76 W7        29.87S
OMAHA EPPLEY   CLOUDY    74  68  81 S9        29.85R
BEATRICE       CLOUDY    77  69  77 W9        29.88R
FALLS CITY     PTSUNNY   79  67  66 S15G25    29.89S
NEBRASKA CITY  CLOUDY    78  64  61 SW17G26   29.87R
PLATTSMOUTH    CLOUDY    75  67  76 SW10      29.86R
$$

NEZ044-045-051>053-067-281800-
OMAHA AREA

CITY           SKY/WX    TMP DP  RH WIND       PRES   REMARKS
EPPLEY FIELD   CLOUDY    74  68  81 S9        29.85R
BLAIR          DRIZZLE   70  68  91 S3        29.85R
FREMONT        CLOUDY    75  69  81 W7        29.85S
MILLARD        CLOUDY    75  69  82 SW3       29.85R
OFFUTT AFB     DRIZZLE   74  69  85 S8        29.84R
PLATTSMOUTH    CLOUDY    75  67  76 SW10      29.86R
WAHOO          CLOUDY    73  69  88 NW7       29.85S
$$


USA.gov is the U.S. government's official web portal to all federal, state and local government web resources and services.